Time,TemperatureF,DewpointF,PressureIn,WindDirection,WindDirectionDegrees,WindSpeedMPH,WindSpeedGustMPH,Humidity,HourlyPrecipIn,Conditions,Clouds,dailyrainin,SolarRadiationWatts/m^2,SoftwareType,DateUTC
2013-02-21 00:11:00,29.0,19.0,-100.00,SW,218,10.0,17.0,67,0.00,,,0.00,0.000000,,2013-02-21 07:11:00,
2013-02-21 00:21:00,29.0,19.0,-100.00,SW,218,10.0,17.0,67,0.00,,,0.00,0.000000,,2013-02-21 07:21:00,
2013-02-21 00:31:00,29.0,19.0,-100.00,SW,218,10.0,17.0,67,0.00,,,0.00,0.000000,,2013-02-21 07:31:00,
2013-02-21 00:41:00,29.0,19.0,-100.00,SW,218,10.0,17.0,67,0.00,,,0.00,0.000000,,2013-02-21 07:41:00,
2013-02-21 01:11:00,29.0,20.0,-100.00,SW,231,9.0,17.0,69,0.00,,,0.00,0.000000,,2013-02-21 08:11:00,
2013-02-21 01:21:00,29.0,20.0,-100.00,SW,231,9.0,17.0,69,0.00,,,0.00,0.000000,,2013-02-21 08:21:00,
2013-02-21 01:31:00,29.0,20.0,-100.00,SW,231,9.0,17.0,69,0.00,,,0.00,0.000000,,2013-02-21 08:31:00,
2013-02-21 01:41:00,29.0,20.0,-100.00,SW,231,9.0,17.0,69,0.00,,,0.00,0.000000,,2013-02-21 08:41:00,
2013-02-21 02:11:00,29.0,19.0,-100.00,SW,229,8.0,15.0,67,0.00,,,0.00,0.000000,,2013-02-21 09:11:00,
2013-02-21 02:22:00,29.0,19.0,-100.00,SW,229,8.0,15.0,67,0.00,,,0.00,0.000000,,2013-02-21 09:22:00,
2013-02-21 02:31:00,29.0,19.0,-100.00,SW,229,8.0,15.0,67,0.00,,,0.00,0.000000,,2013-02-21 09:31:00,
2013-02-21 02:41:00,29.0,19.0,-100.00,SW,229,8.0,15.0,67,0.00,,,0.00,0.000000,,2013-02-21 09:41:00,
2013-02-21 03:11:00,29.0,18.0,-100.00,WSW,242,7.0,14.0,64,0.00,,,0.00,0.000000,,2013-02-21 10:11:00,
2013-02-21 03:21:00,29.0,18.0,-100.00,WSW,242,7.0,14.0,64,0.00,,,0.00,0.000000,,2013-02-21 10:21:00,
2013-02-21 03:31:00,29.0,18.0,-100.00,WSW,242,7.0,14.0,64,0.00,,,0.00,0.000000,,2013-02-21 10:31:00,
2013-02-21 03:41:00,29.0,18.0,-100.00,WSW,242,7.0,14.0,64,0.00,,,0.00,0.000000,,2013-02-21 10:41:00,
2013-02-21 04:01:00,29.0,19.0,-100.00,WSW,246,9.0,16.0,65,0.00,,,0.00,0.000000,,2013-02-21 11:01:00,
2013-02-21 04:11:00,29.0,19.0,-100.00,WSW,246,9.0,16.0,65,0.00,,,0.00,0.000000,,2013-02-21 11:11:00,
2013-02-21 04:21:00,29.0,19.0,-100.00,WSW,246,9.0,16.0,65,0.00,,,0.00,0.000000,,2013-02-21 11:21:00,
2013-02-21 04:31:00,29.0,19.0,-100.00,WSW,246,9.0,16.0,65,0.00,,,0.00,0.000000,,2013-02-21 11:31:00,
2013-02-21 04:41:00,29.0,19.0,-100.00,WSW,246,9.0,16.0,65,0.00,,,0.00,0.000000,,2013-02-21 11:41:00,
2013-02-21 05:11:00,28.0,18.0,-100.00,WSW,256,6.0,14.0,67,0.00,,,0.00,0.000000,,2013-02-21 12:11:00,
2013-02-21 05:21:00,28.0,18.0,-100.00,WSW,256,6.0,14.0,67,0.00,,,0.00,0.000000,,2013-02-21 12:21:00,
2013-02-21 05:32:00,28.0,18.0,-100.00,WSW,256,6.0,14.0,67,0.00,,,0.00,0.000000,,2013-02-21 12:32:00,
2013-02-21 05:42:00,28.0,18.0,-100.00,WSW,256,6.0,14.0,67,0.00,,,0.00,0.000000,,2013-02-21 12:42:00,
2013-02-21 06:12:00,27.0,19.0,-100.00,WSW,256,6.0,12.0,71,0.00,,,0.00,0.000000,,2013-02-21 13:12:00,
2013-02-21 06:22:00,27.0,19.0,-100.00,WSW,256,6.0,12.0,71,0.00,,,0.00,0.000000,,2013-02-21 13:22:00,
2013-02-21 06:32:00,27.0,19.0,-100.00,WSW,256,6.0,12.0,71,0.00,,,0.00,0.000000,,2013-02-21 13:32:00,
2013-02-21 06:41:00,27.0,19.0,-100.00,WSW,256,6.0,12.0,71,0.00,,,0.00,0.000000,,2013-02-21 13:41:00,
2013-02-21 07:11:00,25.0,18.0,-100.00,WNW,283,4.0,8.0,73,0.00,,,0.00,0.000000,,2013-02-21 14:11:00,
2013-02-21 07:21:00,25.0,18.0,-100.00,WNW,283,4.0,8.0,73,0.00,,,0.00,0.000000,,2013-02-21 14:21:00,
2013-02-21 07:31:00,25.0,18.0,-100.00,WNW,283,4.0,8.0,73,0.00,,,0.00,0.000000,,2013-02-21 14:31:00,
2013-02-21 07:41:00,25.0,18.0,-100.00,WNW,283,4.0,8.0,73,0.00,,,0.00,0.000000,,2013-02-21 14:41:00,
2013-02-21 08:12:00,25.0,18.0,-100.00,NW,305,0.0,5.0,75,0.00,,,0.00,18.000000,,2013-02-21 15:12:00,
2013-02-21 08:21:00,25.0,18.0,-100.00,NW,305,0.0,5.0,75,0.00,,,0.00,18.000000,,2013-02-21 15:21:00,
2013-02-21 08:31:00,25.0,18.0,-100.00,NW,305,0.0,5.0,75,0.00,,,0.00,18.000000,,2013-02-21 15:31:00,
2013-02-21 08:41:00,25.0,18.0,-100.00,NW,305,0.0,5.0,75,0.00,,,0.00,18.000000,,2013-02-21 15:41:00,
2013-02-21 09:12:00,29.0,19.0,-100.00,NNE,29,2.0,6.0,67,0.00,,,0.00,106.000000,,2013-02-21 16:12:00,
2013-02-21 09:21:00,29.0,19.0,-100.00,NNE,29,2.0,6.0,67,0.00,,,0.00,106.000000,,2013-02-21 16:21:00,
2013-02-21 09:31:00,29.0,19.0,-100.00,NNE,29,2.0,6.0,67,0.00,,,0.00,106.000000,,2013-02-21 16:31:00,
2013-02-21 09:42:00,29.0,19.0,-100.00,NNE,29,2.0,6.0,67,0.00,,,0.00,106.000000,,2013-02-21 16:42:00,
2013-02-21 10:21:00,32.0,20.0,-100.00,NNW,345,4.0,8.0,61,0.00,,,0.00,248.000000,,2013-02-21 17:21:00,
2013-02-21 10:32:00,32.0,20.0,-100.00,NNW,345,4.0,8.0,61,0.00,,,0.00,248.000000,,2013-02-21 17:32:00,
2013-02-21 10:42:00,32.0,20.0,-100.00,NNW,345,4.0,8.0,61,0.00,,,0.00,248.000000,,2013-02-21 17:42:00,
2013-02-21 11:11:00,33.0,20.0,-100.00,NNW,342,4.0,8.0,59,0.00,,,0.00,359.000000,,2013-02-21 18:11:00,
2013-02-21 11:22:00,33.0,20.0,-100.00,NNW,342,4.0,8.0,59,0.00,,,0.00,359.000000,,2013-02-21 18:22:00,
2013-02-21 11:31:00,33.0,20.0,-100.00,NNW,342,4.0,8.0,59,0.00,,,0.00,359.000000,,2013-02-21 18:31:00,
2013-02-21 11:42:00,33.0,20.0,-100.00,NNW,342,4.0,8.0,59,0.00,,,0.00,359.000000,,2013-02-21 18:42:00,
2013-02-21 12:11:00,33.0,19.0,-100.00,NE,50,3.0,9.0,55,0.00,,,0.00,348.000000,,2013-02-21 19:11:00,
2013-02-21 12:21:00,33.0,19.0,-100.00,NE,50,3.0,9.0,55,0.00,,,0.00,348.000000,,2013-02-21 19:21:00,
2013-02-21 12:31:00,33.0,19.0,-100.00,NE,50,3.0,9.0,55,0.00,,,0.00,348.000000,,2013-02-21 19:31:00,
2013-02-21 12:41:00,33.0,19.0,-100.00,NE,50,3.0,9.0,55,0.00,,,0.00,348.000000,,2013-02-21 19:41:00,
2013-02-21 13:11:00,35.0,20.0,-100.00,NW,320,4.0,9.0,55,0.00,,,0.00,458.000000,,2013-02-21 20:11:00,
2013-02-21 13:21:00,35.0,20.0,-100.00,NW,320,4.0,9.0,55,0.00,,,0.00,458.000000,,2013-02-21 20:21:00,
2013-02-21 13:31:00,35.0,20.0,-100.00,NW,320,4.0,9.0,55,0.00,,,0.00,458.000000,,2013-02-21 20:31:00,
2013-02-21 13:41:00,35.0,20.0,-100.00,NW,320,4.0,9.0,55,0.00,,,0.00,458.000000,,2013-02-21 20:41:00,
2013-02-21 14:11:00,36.0,21.0,-100.00,NNW,335,0.0,8.0,55,0.00,,,0.00,377.000000,,2013-02-21 21:11:00,
2013-02-21 14:21:00,36.0,21.0,-100.00,NNW,335,0.0,8.0,55,0.00,,,0.00,377.000000,,2013-02-21 21:21:00,
2013-02-21 14:31:00,36.0,21.0,-100.00,NNW,335,0.0,8.0,55,0.00,,,0.00,377.000000,,2013-02-21 21:31:00,
2013-02-21 14:41:00,36.0,21.0,-100.00,NNW,335,0.0,8.0,55,0.00,,,0.00,377.000000,,2013-02-21 21:41:00,
2013-02-21 15:11:00,39.0,18.0,-100.00,NNW,330,5.0,10.0,43,0.00,,,0.00,444.000000,,2013-02-21 22:11:00,
2013-02-21 15:21:00,39.0,18.0,-100.00,NNW,330,5.0,10.0,43,0.00,,,0.00,444.000000,,2013-02-21 22:21:00,
2013-02-21 15:31:00,39.0,18.0,-100.00,NNW,330,5.0,10.0,43,0.00,,,0.00,444.000000,,2013-02-21 22:31:00,
2013-02-21 15:41:00,39.0,18.0,-100.00,NNW,330,5.0,10.0,43,0.00,,,0.00,444.000000,,2013-02-21 22:41:00,
2013-02-21 16:11:00,34.0,19.0,-100.00,WNW,302,5.0,10.0,53,0.00,,,0.00,289.000000,,2013-02-21 23:11:00,
2013-02-21 16:21:00,34.0,19.0,-100.00,WNW,302,5.0,10.0,53,0.00,,,0.00,289.000000,,2013-02-21 23:21:00,
2013-02-21 16:31:00,34.0,19.0,-100.00,WNW,302,5.0,10.0,53,0.00,,,0.00,289.000000,,2013-02-21 23:31:00,
2013-02-21 16:41:00,34.0,19.0,-100.00,WNW,302,5.0,10.0,53,0.00,,,0.00,289.000000,,2013-02-21 23:41:00,
2013-02-21 17:11:00,31.0,20.0,-100.00,WSW,248,4.0,13.0,62,0.00,,,0.00,150.000000,,2013-02-22 00:11:00,
2013-02-21 17:21:00,31.0,20.0,-100.00,WSW,248,4.0,13.0,62,0.00,,,0.00,150.000000,,2013-02-22 00:21:00,
2013-02-21 17:31:00,31.0,20.0,-100.00,WSW,248,4.0,13.0,62,0.00,,,0.00,150.000000,,2013-02-22 00:31:00,
2013-02-21 17:41:00,31.0,20.0,-100.00,WSW,248,4.0,13.0,62,0.00,,,0.00,150.000000,,2013-02-22 00:41:00,
2013-02-21 18:11:00,29.0,19.0,-100.00,WNW,300,3.0,6.0,67,0.00,,,0.00,48.000000,,2013-02-22 01:11:00,
2013-02-21 18:21:00,29.0,19.0,-100.00,WNW,300,3.0,6.0,67,0.00,,,0.00,48.000000,,2013-02-22 01:21:00,
2013-02-21 18:32:00,29.0,19.0,-100.00,WNW,300,3.0,6.0,67,0.00,,,0.00,48.000000,,2013-02-22 01:32:00,
2013-02-21 18:42:00,29.0,19.0,-100.00,WNW,300,3.0,6.0,67,0.00,,,0.00,48.000000,,2013-02-22 01:42:00,
2013-02-21 19:11:00,27.0,23.0,-100.00,NW,320,1.0,7.0,84,0.00,,,0.00,3.000000,,2013-02-22 02:11:00,
2013-02-21 19:21:00,27.0,23.0,-100.00,NW,320,1.0,7.0,84,0.00,,,0.00,3.000000,,2013-02-22 02:21:00,
2013-02-21 19:31:00,27.0,23.0,-100.00,NW,320,1.0,7.0,84,0.00,,,0.00,3.000000,,2013-02-22 02:31:00,
2013-02-21 19:42:00,27.0,23.0,-100.00,NW,320,1.0,7.0,84,0.00,,,0.00,3.000000,,2013-02-22 02:42:00,
2013-02-21 20:11:00,26.0,23.0,-100.00,NNE,12,0.0,3.0,90,0.00,,,0.00,0.000000,,2013-02-22 03:11:00,
2013-02-21 20:21:00,26.0,23.0,-100.00,NNE,12,0.0,3.0,90,0.00,,,0.00,0.000000,,2013-02-22 03:21:00,
2013-02-21 20:31:00,26.0,23.0,-100.00,NNE,12,0.0,3.0,90,0.00,,,0.00,0.000000,,2013-02-22 03:31:00,
2013-02-21 20:41:00,26.0,23.0,-100.00,NNE,12,0.0,3.0,90,0.00,,,0.00,0.000000,,2013-02-22 03:41:00,
2013-02-21 21:11:00,26.0,24.0,-100.00,SSE,163,4.0,5.0,91,0.00,,,0.00,0.000000,,2013-02-22 04:11:00,
2013-02-21 21:21:00,26.0,24.0,-100.00,SSE,163,4.0,5.0,91,0.00,,,0.00,0.000000,,2013-02-22 04:21:00,
2013-02-21 21:32:00,26.0,24.0,-100.00,SSE,163,4.0,5.0,91,0.00,,,0.00,0.000000,,2013-02-22 04:32:00,
2013-02-21 21:42:00,26.0,24.0,-100.00,SSE,163,4.0,5.0,91,0.00,,,0.00,0.000000,,2013-02-22 04:42:00,
2013-02-21 22:12:00,25.0,22.0,-100.00,SE,128,5.0,6.0,90,0.00,,,0.00,0.000000,,2013-02-22 05:12:00,
2013-02-21 22:22:00,25.0,22.0,-100.00,SE,128,5.0,6.0,90,0.00,,,0.00,0.000000,,2013-02-22 05:22:00,
2013-02-21 22:32:00,25.0,22.0,-100.00,SE,128,5.0,6.0,90,0.00,,,0.00,0.000000,,2013-02-22 05:32:00,
2013-02-21 22:41:00,25.0,22.0,-100.00,SE,128,5.0,6.0,90,0.00,,,0.00,0.000000,,2013-02-22 05:41:00,
2013-02-21 23:11:00,24.0,22.0,-100.00,SSE,159,2.0,5.0,90,0.00,,,0.00,0.000000,,2013-02-22 06:11:00,
2013-02-21 23:21:00,24.0,22.0,-100.00,SSE,159,2.0,5.0,90,0.00,,,0.00,0.000000,,2013-02-22 06:21:00,
2013-02-21 23:31:00,24.0,22.0,-100.00,SSE,159,2.0,5.0,90,0.00,,,0.00,0.000000,,2013-02-22 06:31:00,
2013-02-21 23:42:00,24.0,22.0,-100.00,SSE,159,2.0,5.0,90,0.00,,,0.00,0.000000,,2013-02-22 06:42:00,